This is the latest recevied weather packets stored in our database for station/object LU9FW-5. If no packets are shown the sender has not sent any weather packets the latest 10 day(s).
| Time | Temp. | Humidity | Pressure | Rain* | Wind** | Luminosity | Snow |
|---|---|---|---|---|---|---|---|
| 1778269201 | 14.44° C | 25% | 1003 hPa | 0 mm | - | 1652 W/m² | - |
| 1778269132 | 14.44° C | 25% | 1002.9 hPa | 0 mm | - | 1652 W/m² | - |
| 1778269063 | 14.44° C | 25% | 1003 hPa | 0 mm | - | 1652 W/m² | - |
| 1778268993 | 14.44° C | 29% | 1002.9 hPa | 0 mm | - | 1652 W/m² | - |
| 1778268923 | 14.44° C | 28% | 1002.8 hPa | 0 mm | - | 1652 W/m² | - |
| 1778268853 | 13.89° C | 30% | 1003 hPa | 0 mm | - | 1652 W/m² | - |
| 1778268782 | 13.89° C | 28% | 1002.7 hPa | 0 mm | - | 1652 W/m² | - |
| 1778268703 | 13.89° C | 29% | 1002.7 hPa | 0 mm | - | 1652 W/m² | - |
| 1778268639 | 13.89° C | 29% | 1002.8 hPa | 0 mm | - | 1652 W/m² | - |
| 1778268571 | 13.89° C | 29% | 1002.9 hPa | 0 mm | - | 1652 W/m² | - |
| 1778268501 | 13.89° C | 29% | 1002.8 hPa | 0 mm | - | 1652 W/m² | - |
| 1778268421 | 13.89° C | 29% | 1002.8 hPa | 0 mm | - | 1652 W/m² | - |
| 1778268368 | 14.44° C | 27% | 1002.9 hPa | 0 mm | - | 1652 W/m² | - |
| 1778268292 | 14.44° C | 28% | 1003 hPa | 0 mm | - | 1652 W/m² | - |
| 1778268222 | 14.44° C | 27% | 1003 hPa | 0 mm | - | 1652 W/m² | - |
| 1778268143 | 14.44° C | 27% | 1002.9 hPa | 0 mm | - | 1652 W/m² | - |
| 1778268083 | 14.44° C | 27% | 1002.9 hPa | 0 mm | - | 1652 W/m² | - |
| 1778268009 | 14.44° C | 28% | 1003 hPa | 0 mm | - | 1652 W/m² | - |
| 1778267941 | 13.89° C | 27% | 1002.7 hPa | 0 mm | - | 1652 W/m² | - |
| 1778267862 | 13.89° C | 28% | 1002.9 hPa | 0 mm | - | 1652 W/m² | - |
| 1778267794 | 13.89° C | 27% | 1003 hPa | 0 mm | - | 1652 W/m² | - |
| 1778267724 | 13.89° C | 27% | 1003 hPa | 0 mm | - | 1652 W/m² | - |
| 1778267656 | 13.89° C | 28% | 1002.9 hPa | 0 mm | - | 1652 W/m² | - |
| 1778267578 | 14.44° C | 28% | 1003 hPa | 0 mm | - | 1652 W/m² | - |
| 1778267509 | 14.44° C | 29% | 1003.1 hPa | 0 mm | - | 1652 W/m² | - |
* Rain latest hour (hover to see other rain measurements)
** Current wind speed in m/s (hover to see current wind gust speed)